TimeCDT,TemperatureF,Dew PointF,Humidity,Sea Level PressureIn,VisibilityMPH,Wind Direction,Wind SpeedMPH,Gust SpeedMPH,PrecipitationIn,Events,Conditions,WindDirDegrees,DateUTC
12:54 AM,44.1,21.0,40,30.14,10.0,NW,9.2,-,N/A,,Clear,310,2013-10-06 05:54:00
1:54 AM,44.1,23.0,43,30.14,10.0,NW,15.0,-,N/A,,Clear,320,2013-10-06 06:54:00
2:54 AM,43.0,25.0,49,30.13,10.0,NW,13.8,-,N/A,,Clear,320,2013-10-06 07:54:00
3:54 AM,39.0,24.1,55,30.12,10.0,WNW,10.4,-,N/A,,Clear,300,2013-10-06 08:54:00
4:54 AM,39.0,24.1,55,30.12,10.0,NW,10.4,-,N/A,,Clear,310,2013-10-06 09:54:00
5:54 AM,39.0,23.0,53,30.13,10.0,WNW,13.8,-,N/A,,Clear,300,2013-10-06 10:54:00
6:54 AM,41.0,24.1,51,30.13,10.0,NW,16.1,-,N/A,,Clear,310,2013-10-06 11:54:00
7:54 AM,42.1,25.0,51,30.14,10.0,WNW,13.8,-,N/A,,Clear,300,2013-10-06 12:54:00
8:54 AM,48.0,26.1,42,30.15,10.0,WNW,15.0,20.7,N/A,,Clear,300,2013-10-06 13:54:00
9:54 AM,54.0,28.0,37,30.14,10.0,NW,19.6,26.5,N/A,,Clear,320,2013-10-06 14:54:00
10:54 AM,60.1,28.9,31,30.16,9.0,NW,21.9,32.2,N/A,,Clear,320,2013-10-06 15:54:00
11:54 AM,63.0,27.0,26,30.14,9.0,NNW,23.0,31.1,N/A,,Clear,340,2013-10-06 16:54:00
12:54 PM,64.9,30.0,27,30.13,9.0,NNW,24.2,29.9,N/A,,Clear,340,2013-10-06 17:54:00
1:54 PM,69.1,30.9,24,30.09,8.0,NNW,20.7,32.2,N/A,,Clear,340,2013-10-06 18:54:00
2:54 PM,70.0,30.9,24,30.07,6.0,NNW,19.6,29.9,N/A,,Haze,340,2013-10-06 19:54:00
3:54 PM,71.1,33.1,25,30.07,4.0,NNW,20.7,28.8,N/A,,Haze,330,2013-10-06 20:54:00
4:40 PM,71.6,32.0,23,30.10,2.0,NNW,24.2,31.1,N/A,,Haze,340,2013-10-06 21:40:00
4:54 PM,72.0,33.1,24,30.06,2.5,NW,19.6,26.5,N/A,,Haze,320,2013-10-06 21:54:00
5:54 PM,71.1,33.1,25,30.08,1.8,NNW,17.3,-,N/A,,Haze,340,2013-10-06 22:54:00
6:54 PM,66.9,34.0,30,30.09,2.0,North,12.7,-,N/A,,Haze,350,2013-10-06 23:54:00
7:04 PM,66.2,33.8,30,30.11,10.0,North,11.5,-,N/A,,Clear,350,2013-10-07 00:04:00
7:54 PM,57.0,35.1,44,30.12,10.0,North,8.1,-,N/A,,Clear,350,2013-10-07 00:54:00
8:54 PM,54.0,35.1,49,30.13,3.0,North,6.9,-,N/A,,Haze,360,2013-10-07 01:54:00
9:06 PM,51.8,35.6,54,30.15,2.5,North,10.4,-,N/A,,Haze,360,2013-10-07 02:06:00
9:21 PM,51.8,35.6,54,30.15,1.8,North,8.1,-,N/A,,Haze,350,2013-10-07 02:21:00
9:54 PM,48.9,36.0,61,30.14,1.5,NNW,10.4,-,N/A,,Haze,340,2013-10-07 02:54:00
10:26 PM,48.2,37.4,66,30.17,3.0,SW,6.9,-,N/A,,Haze,230,2013-10-07 03:26:00
10:54 PM,50.0,36.0,59,30.14,2.0,NNW,9.2,-,N/A,,Haze,330,2013-10-07 03:54:00
11:03 PM,50.0,35.6,58,30.17,1.8,NW,8.1,-,N/A,,Haze,320,2013-10-07 04:03:00
11:26 PM,50.0,35.6,58,30.17,2.5,NW,8.1,-,N/A,,Haze,310,2013-10-07 04:26:00
11:35 PM,48.2,37.4,66,30.17,3.0,NW,8.1,-,N/A,,Haze,310,2013-10-07 04:35:00
11:47 PM,50.0,35.6,58,30.17,2.5,NW,9.2,-,N/A,,Haze,310,2013-10-07 04:47:00
11:54 PM,48.9,36.0,61,30.14,2.5,NW,8.1,-,N/A,,Haze,310,2013-10-07 04:54:00